• In Hungary
  • List of Countries
  • For 7 days
  • Water Temperature
  • Satellite Maps
  • Weather Map
  • News
  • Weather Widgets
  • user-avatar
    Login

    Hourly Weather Dabrocz

    Today, 20 August, Monday

    Time Temperature Precipitation Wind Pressure Humidity
    00:00 +20°C° 0 mm 2 mps 741 mmHg 73%
    01:00 +20°C° 0 mm 2 mps 741 mmHg 76%
    02:00 +19°C° 0 mm 2 mps 741 mmHg 78%
    03:00 +19°C° 0 mm 2 mps 741 mmHg 79%
    04:00 +19°C° 0 mm 2 mps 741 mmHg 81%
    05:00 +20°C° 0 mm 2 mps 741 mmHg 77%
    06:00 +21°C° 0 mm 3 mps 741 mmHg 73%
    07:00 +22°C° 0 mm 3 mps 741 mmHg 70%
    08:00 +25°C° 0 mm 3 mps 741 mmHg 64%
    09:00 +27°C° 0 mm 3 mps 741 mmHg 58%
    10:00 +29°C° 0 mm 4 mps 741 mmHg 52%
    11:00 +29°C° 0 mm 3 mps 740 mmHg 50%
    12:00 +30°C° 0 mm 3 mps 740 mmHg 48%
    13:00 +30°C° 0 mm 3 mps 740 mmHg 46%
    14:00 +30°C° 0 mm 3 mps 739 mmHg 46%
    15:00 +30°C° 0 mm 3 mps 739 mmHg 47%
    16:00 +30°C° 0 mm 3 mps 739 mmHg 48%
    17:00 +29°C° 0 mm 2 mps 739 mmHg 53%
    18:00 +27°C° 0 mm 2 mps 738 mmHg 58%
    19:00 +25°C° 0 mm 2 mps 738 mmHg 62%
    20:00 +25°C° 0.1 mm 2 mps 739 mmHg 64%
    21:00 +24°C° 0.1 mm 3 mps 739 mmHg 67%
    22:00 +22°C° 0.1 mm 3 mps 739 mmHg 69%
    23:00 +21°C° 0 mm 2 mps 739 mmHg 72%

    Tomorrow, 21 August, Tuesday

    Time Temperature Precipitation Wind Pressure Humidity
    00:00 +20°C° 0 mm 2 mps 739 mmHg 76%
    01:00 +19°C° 0 mm 2 mps 739 mmHg 79%
    02:00 +19°C° 0 mm 2 mps 740 mmHg 80%
    03:00 +19°C° 0 mm 2 mps 740 mmHg 82%
    04:00 +18°C° 0 mm 2 mps 740 mmHg 83%
    05:00 +19°C° 0 mm 3 mps 740 mmHg 80%
    06:00 +20°C° 0 mm 3 mps 741 mmHg 78%
    07:00 +20°C° 0 mm 4 mps 741 mmHg 76%
    08:00 +21°C° 0 mm 4 mps 741 mmHg 70%
    09:00 +22°C° 0 mm 4 mps 742 mmHg 64%
    10:00 +25°C° 0 mm 4 mps 742 mmHg 58%
    11:00 +25°C° 0 mm 4 mps 742 mmHg 56%
    12:00 +25°C° 0 mm 4 mps 742 mmHg 54%
    13:00 +25°C° 0 mm 5 mps 742 mmHg 52%
    14:00 +25°C° 0 mm 4 mps 742 mmHg 51%
    15:00 +25°C° 0 mm 4 mps 742 mmHg 50%
    16:00 +25°C° 0 mm 4 mps 742 mmHg 49%
    17:00 +22°C° 0 mm 3 mps 742 mmHg 53%
    18:00 +20°C° 0 mm 3 mps 742 mmHg 56%
    19:00 +19°C° 0 mm 2 mps 742 mmHg 60%
    20:00 +18°C° 0 mm 2 mps 742 mmHg 61%
    21:00 +17°C° 0 mm 2 mps 743 mmHg 62%
    22:00 +16°C° 0 mm 2 mps 743 mmHg 64%
    23:00 +16°C° 0 mm 2 mps 743 mmHg 67%

    Day after tomorrow, 22 August, Wednesday

    Time Temperature Precipitation Wind Pressure Humidity
    00:00 +15°C° 0 mm 1 mps 743 mmHg 70%
    01:00 +15°C° 0 mm 1 mps 743 mmHg 73%
    02:00 +15°C° 0 mm 1 mps 743 mmHg 76%
    03:00 +14°C° 0 mm 1 mps 743 mmHg 80%
    04:00 +14°C° 0 mm 1 mps 743 mmHg 83%
    05:00 +15°C° 0 mm 1 mps 744 mmHg 80%
    06:00 +17°C° 0 mm 2 mps 744 mmHg 76%
    07:00 +18°C° 0 mm 2 mps 744 mmHg 73%
    08:00 +19°C° 0 mm 2 mps 744 mmHg 67%
    09:00 +21°C° 0 mm 2 mps 744 mmHg 61%
    10:00 +24°C° 0 mm 2 mps 744 mmHg 54%
    11:00 +24°C° 0 mm 2 mps 744 mmHg 52%
    12:00 +25°C° 0 mm 2 mps 744 mmHg 49%
    13:00 +26°C° 0 mm 2 mps 743 mmHg 46%
    14:00 +26°C° 0 mm 2 mps 743 mmHg 47%
    15:00 +26°C° 0 mm 2 mps 743 mmHg 48%
    16:00 +26°C° 0 mm 2 mps 743 mmHg 49%
    17:00 +24°C° 0 mm 2 mps 743 mmHg 56%
    18:00 +21°C° 0 mm 2 mps 743 mmHg 63%
    19:00 +19°C° 0 mm 2 mps 742 mmHg 70%
    20:00 +19°C° 0 mm 2 mps 742 mmHg 73%
    21:00 +18°C° 0 mm 2 mps 742 mmHg 76%
    22:00 +17°C° 0 mm 3 mps 742 mmHg 79%
    23:00 +17°C° 0 mm 3 mps 742 mmHg 81%

    23 August, Thursday

    Time Temperature Precipitation Wind Pressure Humidity
    00:00 +16°C° 0 mm 3 mps 742 mmHg 83%
    01:00 +16°C° 0 mm 3 mps 742 mmHg 86%
    02:00 +16°C° 0 mm 3 mps 742 mmHg 86%
    03:00 +14°C° 0 mm 3 mps 741 mmHg 87%
    04:00 +14°C° 0 mm 3 mps 741 mmHg 88%
    05:00 +16°C° 0 mm 3 mps 741 mmHg 84%
    06:00 +17°C° 0 mm 3 mps 741 mmHg 79%
    07:00 +18°C° 0 mm 3 mps 741 mmHg 75%
    08:00 +20°C° 0 mm 3 mps 741 mmHg 69%
    09:00 +22°C° 0 mm 3 mps 741 mmHg 64%
    10:00 +25°C° 0 mm 3 mps 740 mmHg 59%
    11:00 +26°C° 0 mm 2 mps 740 mmHg 55%
    12:00 +28°C° 0 mm 2 mps 740 mmHg 51%
    13:00 +29°C° 0 mm 2 mps 740 mmHg 48%
    14:00 +29°C° 0 mm 1 mps 739 mmHg 47%
    15:00 +29°C° 0 mm 1 mps 739 mmHg 46%
    16:00 +29°C° 0 mm 1 mps 739 mmHg 46%
    17:00 +27°C° 0 mm 1 mps 739 mmHg 52%
    18:00 +25°C° 0 mm 2 mps 738 mmHg 59%
    19:00 +24°C° 0 mm 2 mps 738 mmHg 66%
    20:00 +23°C° 0 mm 2 mps 738 mmHg 71%
    21:00 +21°C° 0 mm 2 mps 738 mmHg 77%
    22:00 +20°C° 0 mm 3 mps 738 mmHg 82%
    23:00 +20°C° 0 mm 3 mps 738 mmHg 84%

    24 August, Friday

    Time Temperature Precipitation Wind Pressure Humidity
    00:00 +20°C° 0 mm 3 mps 737 mmHg 86%
    01:00 +19°C° 0 mm 3 mps 737 mmHg 88%
    02:00 +19°C° 0 mm 3 mps 737 mmHg 87%
    03:00 +19°C° 0 mm 3 mps 737 mmHg 87%
    04:00 +19°C° 0 mm 2 mps 737 mmHg 86%
    05:00 +20°C° 0 mm 3 mps 736 mmHg 81%
    06:00 +21°C° 0 mm 3 mps 736 mmHg 76%
    07:00 +22°C° 0 mm 3 mps 736 mmHg 71%
    08:00 +25°C° 0 mm 3 mps 736 mmHg 65%
    09:00 +27°C° 0 mm 3 mps 736 mmHg 59%
    10:00 +29°C° 0 mm 4 mps 736 mmHg 53%
    11:00 +30°C° 0 mm 3 mps 736 mmHg 49%
    12:00 +31°C° 0 mm 3 mps 736 mmHg 45%
    13:00 +33°C° 0 mm 3 mps 736 mmHg 40%
    14:00 +33°C° 0 mm 3 mps 735 mmHg 43%
    15:00 +31°C° 0 mm 3 mps 735 mmHg 45%
    16:00 +31°C° 0 mm 3 mps 735 mmHg 48%
    17:00 +29°C° 0 mm 3 mps 735 mmHg 54%
    18:00 +27°C° 0 mm 3 mps 735 mmHg 60%
    19:00 +25°C° 0 mm 3 mps 735 mmHg 66%
    20:00 +24°C° 0.2 mm 3 mps 734 mmHg 69%
    21:00 +24°C° 0.2 mm 3 mps 734 mmHg 73%
    22:00 +23°C° 0.2 mm 2 mps 734 mmHg 76%
    23:00 +21°C° 0.4 mm 2 mps 734 mmHg 78%

    25 August, Saturday

    Time Temperature Precipitation Wind Pressure Humidity
    00:00 +20°C° 0.4 mm 2 mps 734 mmHg 81%
    01:00 +20°C° 0.4 mm 2 mps 734 mmHg 83%
    02:00 +21°C° 0.2 mm 1 mps 734 mmHg 84%
    03:00 +20°C° 0.2 mm 1 mps 734 mmHg 86%
    04:00 +20°C° 0.2 mm 1 mps 734 mmHg 87%
    05:00 +21°C° 0.2 mm 1 mps 734 mmHg 85%
    06:00 +21°C° 0.2 mm 2 mps 734 mmHg 82%
    07:00 +23°C° 0.2 mm 2 mps 734 mmHg 80%
    08:00 +24°C° 0 mm 2 mps 734 mmHg 75%
    09:00 +25°C° 0 mm 2 mps 734 mmHg 70%
    10:00 +26°C° 0 mm 2 mps 735 mmHg 65%
    11:00 +27°C° 0.1 mm 2 mps 734 mmHg 63%
    12:00 +28°C° 0.1 mm 3 mps 734 mmHg 60%
    13:00 +28°C° 0.1 mm 3 mps 734 mmHg 58%
    14:00 +28°C° 1.5 mm 3 mps 733 mmHg 63%
    15:00 +27°C° 1.5 mm 3 mps 733 mmHg 68%
    16:00 +26°C° 1.5 mm 3 mps 733 mmHg 72%
    17:00 +25°C° 0.7 mm 2 mps 733 mmHg 77%
    18:00 +23°C° 0.7 mm 2 mps 733 mmHg 82%
    19:00 +21°C° 0.7 mm 2 mps 733 mmHg 87%
    20:00 +21°C° 0.9 mm 2 mps 733 mmHg 89%
    21:00 +20°C° 0.9 mm 2 mps 733 mmHg 90%
    22:00 +20°C° 0.9 mm 2 mps 734 mmHg 92%
    23:00 +19°C° 0.7 mm 3 mps 734 mmHg 92%
    Show more